Mason City, IA

9:52 AM CDT on July 23, 2017 (GMT -0500)
Mason City Municipal

Weather History for KMCW - April, 2013

Change the Weather History Date:

Saturday, April 13, 2013

  Actual Average Record
Temperature  
Mean Temperature 35 °F 46 °F  
Max Temperature 42 °F 57 °F 86 °F (2006)
Min Temperature 28 °F 34 °F 18 °F (1950)
Degree Days  
Heating Degree Days 30 20  
Month to date heating degree days 352 289  
Since 1 July heating degree days 7150 7134  
Cooling Degree Days 0 0  
Month to date cooling degree days 0 0  
Year to date cooling degree days 0 0  
Moisture  
Dew Point 25 °F    
Average Humidity 66    
Maximum Humidity 78    
Minimum Humidity 54    
Precipitation  
Precipitation 0.00 in 0.13 in 1.10 in (1912)
Month to date precipitation 3.63 1.47  
Year to date precipitation 8.68 5.52  
Snow  
Snow 0.00 in 0.10 in 1.50 in (1928)
Month to date snowfall 0.7 1.6  
Since 1 July snowfall 46.5 40.1  
Snow Depth 0.00 in    
Sea Level Pressure  
Sea Level Pressure 29.93 in    
Wind  
Wind Speed 11 mph (WNW)    
Max Wind Speed 21 mph    
Max Gust Speed 25 mph    
Visibility 10 miles    
Events      
T = Trace of Precipitation, MM = Missing Value Source: NWS Daily Summary

Daily Weather History Graph

Daily Weather History Graph

Search for Another Location

Airport or City:

Trip Planner

Search our weather history database for the weather conditions in past years. The results will help you decide how hot, cold, wet, or windy it might be!

Date:

Astronomy

Apr. 13, 2013 Rise Set
Actual Time 6:34 AM CDT 7:54 PM CDT
Civil Twilight 6:04 AM CDT 8:23 PM CDT
Nautical Twilight 5:29 AM CDT 8:59 PM CDT
Astronomical Twilight 4:51 AM CDT 9:36 PM CDT
Moon 8:21 AM CDT (4/13) 11:23 PM CDT (4/13)
Length of Visible Light 14h 18m
Length of Day
13h 19m
Waxing Crescent, 10% of the Moon is Illuminated
Apr 13
Waxing Crescent
Apr 18
First Quarter
Apr 25
Full
May 2
Last Quarter
May 9
New

Hourly Weather History & Observations

Time (CDT) Temp. Windchill Dew Point Humidity Pressure Visibility Wind Dir Wind Speed Gust Speed Precip Events Conditions
12:53 AM 30.0 °F 19.5 °F 24.1 °F 79% 29.91 in 10.0 mi WNW 13.8 mph - N/A   Overcast
1:53 AM 30.0 °F 18.3 °F 24.1 °F 79% 29.91 in 10.0 mi West 17.3 mph - N/A   Overcast
2:53 AM 28.9 °F 17.3 °F 21.9 °F 75% 29.91 in 10.0 mi NW 16.1 mph - N/A   Overcast
3:53 AM 28.9 °F 17.7 °F 23.0 °F 78% 29.91 in 10.0 mi West 15.0 mph - N/A   Overcast
4:42 AM 28.4 °F 15.8 °F 23.0 °F 80% 29.89 in 10.0 mi West 18.4 mph - N/A   Overcast
4:53 AM 28.9 °F 16.9 °F 23.0 °F 78% 29.92 in 10.0 mi West 17.3 mph - N/A   Overcast
5:53 AM 28.9 °F 17.3 °F 23.0 °F 78% 29.92 in 10.0 mi WNW 16.1 mph - N/A   Overcast
6:53 AM 28.9 °F 16.5 °F 21.9 °F 75% 29.94 in 10.0 mi WNW 18.4 mph - N/A   Overcast
7:17 AM 28.4 °F 16.2 °F 21.2 °F 74% 29.92 in 10.0 mi WNW 17.3 mph - N/A   Overcast
7:53 AM 30.0 °F 17.5 °F 21.9 °F 72% 29.95 in 10.0 mi WNW 19.6 mph 24.2 mph N/A   Overcast
8:53 AM 30.0 °F 19.5 °F 21.9 °F 72% 29.96 in 10.0 mi WNW 13.8 mph - N/A   Overcast
9:53 AM 32.0 °F 23.0 °F 24.1 °F 73% 29.96 in 10.0 mi West 11.5 mph - N/A   Overcast
10:53 AM 35.1 °F 25.9 °F 25.0 °F 67% 29.97 in 10.0 mi West 13.8 mph - N/A   Mostly Cloudy
11:02 AM 33.8 °F 24.8 °F 24.8 °F 70% 29.95 in 10.0 mi West 12.7 mph - N/A   Overcast
11:53 AM 35.1 °F 25.9 °F 25.0 °F 67% 29.98 in 10.0 mi WNW 13.8 mph - N/A   Overcast
12:53 PM 37.0 °F 28.5 °F 26.1 °F 65% 29.96 in 10.0 mi West 13.8 mph - N/A   Overcast
1:53 PM 37.9 °F 29.6 °F 27.0 °F 65% 29.95 in 10.0 mi West 13.8 mph - N/A   Overcast
2:53 PM 37.9 °F 32.7 °F 26.1 °F 62% 29.95 in 10.0 mi West 6.9 mph - N/A   Mostly Cloudy
3:17 PM 39.2 °F 37.0 °F 26.6 °F 61% 29.92 in 10.0 mi West 3.5 mph - N/A   Scattered Clouds
3:27 PM 39.2 °F 32.5 °F 26.6 °F 61% 29.92 in 10.0 mi WSW 10.4 mph - N/A   Mostly Cloudy
3:53 PM 39.9 °F 33.9 °F 26.1 °F 58% 29.93 in 10.0 mi WSW 9.2 mph - N/A   Mostly Cloudy
4:16 PM 39.2 °F 34.2 °F 26.6 °F 61% 29.91 in 10.0 mi West 6.9 mph - N/A   Mostly Cloudy
4:43 PM 39.2 °F 35.0 °F 24.8 °F 56% 29.89 in 10.0 mi WNW 5.8 mph - N/A   Mostly Cloudy
4:53 PM 41.0 °F 39.0 °F 26.1 °F 55% 29.91 in 10.0 mi NNW 3.5 mph - N/A   Mostly Cloudy
5:28 PM 41.0 °F 39.0 °F 26.6 °F 57% 29.89 in 10.0 mi SW 3.5 mph - N/A   Mostly Cloudy
5:53 PM 39.9 °F 37.8 °F 26.1 °F 58% 29.91 in 10.0 mi West 3.5 mph - N/A   Scattered Clouds
6:53 PM 39.0 °F - 25.0 °F 57% 29.90 in 10.0 mi Calm Calm - N/A   Mostly Cloudy
7:53 PM 39.0 °F - 24.1 °F 55% 29.91 in 10.0 mi Calm Calm - N/A   Mostly Cloudy
8:53 PM 39.0 °F 35.7 °F 30.0 °F 70% 29.92 in 10.0 mi ENE 4.6 mph - N/A   Overcast
9:53 PM 37.9 °F 34.4 °F 30.9 °F 76% 29.94 in 10.0 mi ENE 4.6 mph - N/A   Overcast
10:53 PM 37.9 °F 32.7 °F 28.9 °F 70% 29.93 in 10.0 mi East 6.9 mph - N/A   Overcast
11:53 PM 37.0 °F 29.8 °F 28.9 °F 73% 29.90 in 10.0 mi East 10.4 mph - N/A   Overcast